(152914) = 2000 DK103 = 2002 VE23 = 2002 VH130

Discovered at Socorro on 2000-02-29 by LINEAR.

Orbit

Orbit type: Main Belt

Note: WebGL enabled browser required.

epoch2023-09-13.0
epoch JD2460200.5
perihelion date2020-12-14.81332
perihelion JD2459198.31332
argument of perihelion (°)51.81333
ascending node (°)49.35189
inclination (°)5.59421
eccentricity0.1361653
perihelion distance (AU)2.0072587
Tisserand w.r.t. Jupiter3.6
ΔV w.r.t. Earth (km/sec)9.0
semimajor axis (AU)2.3236608
mean anomaly (°)278.86459
mean daily motion (°/day)0.27825610
aphelion distance (AU)2.640
period (years)3.54
P-vector [x]-0.19079858
P-vector [y]0.86740123
P-vector [z]0.45957699
Q-vector [x]-0.97883884
Q-vector [y]-0.20339246
Q-vector [z]-0.02249501
absolute magnitude17.01
phase slope0.15
uncertainty0
referenceMPEC 2023-X152
observations used590
oppositions15
arc length (days)11191
first opposition used1993
last opposition used2023
residual rms (arc-secs)0.75
perturbers coarse indicatorM-v
perturbers precise indicator003Ek
first observation date used1993-04-17.0
last observation date used2023-12-07.0
computer nameMPCLINUX
JD of orbit computation2456731.510031
perihelion JD uncertainty (days)9.4411E-05
argument of perihelion uncertainty (°)6.5120E-05
ascending node uncertainty (°)5.7806E-05
inclination uncertainty (°)5.9508E-06
eccentricity uncertainty 4.8433E-08
perihelion distance uncertainty (AU)1.1166E-07
Minimum Orbit Intersection Distances (in AU)
for orbit epoch: 2460200.5, reference: E2023-XF2
Mercury1.6929
Venus1.28964
Earth1.02829
Mars0.40209
Jupiter2.50693
Saturn7.03683
Uranus16.228
Neptune27.5198

Observations

601 total observations over interval: 1993 04 17.12339 – 2023 12 07.145848
These data are available for download (format description).

Date (UT) J2000 RA J2000 Dec Magn Location Ref
1993 04 17.12339 11 31 52.26 +10 01 55.1 20.2 V 691 – Steward Observatory, Kitt Peak-Spacewatch MPS 77882
1993 04 17.14532 11 31 51.60 +10 01 52.8 20.2 V 691 – Steward Observatory, Kitt Peak-Spacewatch MPS 77882
1993 04 17.16698 11 31 50.92 +10 01 50.9 20.3 V 691 – Steward Observatory, Kitt Peak-Spacewatch MPS 77882
2000 02 29.26552 11 08 21.84 +16 03 23.1 18.9   704 – Lincoln Laboratory ETS, New Mexico MPS 11327
2000 02 29.27892 11 08 21.01 +16 03 26.8 18.7   704 – Lincoln Laboratory ETS, New Mexico MPS 11327
2000 02 29.29231 11 08 20.17 +16 03 29.8 18.6   704 – Lincoln Laboratory ETS, New Mexico MPS 11327
2000 02 29.31119 11 08 18.96 +16 03 37.5 19.0   704 – Lincoln Laboratory ETS, New Mexico MPS 11327
2000 03 05.24932 11 03 13.09 +16 26 06.8 19.1   704 – Lincoln Laboratory ETS, New Mexico MPS 11327
2000 03 05.26402 11 03 12.16 +16 26 12.4 19.3   704 – Lincoln Laboratory ETS, New Mexico MPS 11327
2000 03 05.29098 11 03 10.40 +16 26 17.7 19.1   704 – Lincoln Laboratory ETS, New Mexico MPS 11327
2000 03 05.30451 11 03 09.49 +16 26 20.6 19.3   704 – Lincoln Laboratory ETS, New Mexico MPS 11327
2000 03 12.28910 10 56 07.27 +16 50 29.2 19.5   704 – Lincoln Laboratory ETS, New Mexico MPS 11327
2000 03 12.30185 10 56 06.45 +16 50 29.7 19.5   704 – Lincoln Laboratory ETS, New Mexico MPS 11327
2000 03 12.31471 10 56 05.66 +16 50 31.0 19.7   704 – Lincoln Laboratory ETS, New Mexico MPS 11327
2002 10 11.41425 03 49 09.46 +18 38 55.2 20.0   704 – Lincoln Laboratory ETS, New Mexico MPS 67621
2002 10 11.43023 03 49 09.20 +18 38 55.7 20.2   704 – Lincoln Laboratory ETS, New Mexico MPS 67621
2002 10 11.46227 03 49 08.57 +18 38 59.8 19.7   704 – Lincoln Laboratory ETS, New Mexico MPS 67621
2002 11 01.40975 03 36 01.88 +19 03 37.2 19.6   644 – Palomar Mountain/NEAT MPC 47446
2002 11 01.42254 03 36 01.10 +19 03 37.5 19.2   644 – Palomar Mountain/NEAT MPC 47446
2002 11 01.43673 03 36 00.23 +19 03 37.7 19.1   644 – Palomar Mountain/NEAT MPC 47446
2002 11 05.23067 03 32 15.17 +19 04 48.1 19.0   704 – Lincoln Laboratory ETS, New Mexico MPS 66396
2002 11 05.24778 03 32 14.04 +19 04 47.9 19.6   704 – Lincoln Laboratory ETS, New Mexico MPS 66396
2002 11 05.26497 03 32 12.91 +19 04 48.7 19.7   704 – Lincoln Laboratory ETS, New Mexico MPS 66396
2002 11 05.28256 03 32 11.74 +19 04 48.5 19.5   704 – Lincoln Laboratory ETS, New Mexico MPS 66396
2002 11 05.29981 03 32 10.69 +19 04 49.3 19.6   704 – Lincoln Laboratory ETS, New Mexico MPS 66396
2002 11 05.58420 03 31 53.07 +19 04 52.4 19.2 V 408 – Nyukasa MPS 77882
2002 11 05.59808 03 31 52.16 +19 04 52.2 19.2 V 408 – Nyukasa MPS 77882
2002 11 06.24550 03 31 11.69 +19 04 58.1 19.2   704 – Lincoln Laboratory ETS, New Mexico MPS 66396
2002 11 06.26215 03 31 10.67 +19 04 58.5 19.3   704 – Lincoln Laboratory ETS, New Mexico MPS 66396
2002 11 06.27882 03 31 09.53 +19 04 57.5 19.7   704 – Lincoln Laboratory ETS, New Mexico MPS 66396
2002 11 06.31221 03 31 07.36 +19 04 58.5 19.5   704 – Lincoln Laboratory ETS, New Mexico MPS 66396
2002 11 06.57577 03 30 50.85 +19 04 59.7 19.2 V 408 – Nyukasa MPS 77882
2002 11 06.58966 03 30 49.91 +19 04 59.7 19.2 V 408 – Nyukasa MPS 77882
2002 11 10.58667 03 26 29.86 +19 04 54.2 19.2 V 408 – Nyukasa MPS 77882
2002 11 10.60056 03 26 28.90 +19 04 54.3 19.2 V 408 – Nyukasa MPS 77882
2002 11 14.25438 03 22 22.76 +19 04 11.2 19.0   704 – Lincoln Laboratory ETS, New Mexico MPS 66396
2002 11 14.27253 03 22 21.48 +19 04 10.6 19.4   704 – Lincoln Laboratory ETS, New Mexico MPS 66396
2002 11 14.30833 03 22 18.99 +19 04 11.3 19.4   704 – Lincoln Laboratory ETS, New Mexico MPS 66396
2002 11 14.32627 03 22 17.71 +19 04 11.3 19.4   704 – Lincoln Laboratory ETS, New Mexico MPS 66396
2002 11 27.29436 03 07 56.95 +18 58 41.8 19.0 R 699 – Lowell Observatory-LONEOS MPS 67621
2002 11 27.31050 03 07 55.90 +18 58 40.9   699 – Lowell Observatory-LONEOS MPS 67621
2002 11 27.32657 03 07 54.98 +18 58 42.3   699 – Lowell Observatory-LONEOS MPS 67621
2002 11 27.34259 03 07 53.98 +18 58 42.0   699 – Lowell Observatory-LONEOS MPS 67621
2002 11 28.18448 03 07 02.72 +18 58 19.4 18.9 R 699 – Lowell Observatory-LONEOS MPS 67621
2002 11 28.20056 03 07 01.67 +18 58 20.1   699 – Lowell Observatory-LONEOS MPS 67621
2002 11 28.21667 03 07 00.69 +18 58 18.7   699 – Lowell Observatory-LONEOS MPS 67621
2002 11 28.23276 03 06 59.67 +18 58 19.0   699 – Lowell Observatory-LONEOS MPS 67621
2002 12 01.47694 03 03 49.06 +18 57 09.9 20.4   608 – Haleakala-AMOS MPS 67621
2002 12 01.48739 03 03 48.47 +18 57 09.8 20.0   608 – Haleakala-AMOS MPS 67621
2002 12 01.49786 03 03 47.85 +18 57 08.6 20.8   608 – Haleakala-AMOS MPS 67621
2002 12 02.22899 03 03 07.56 +18 56 55.1 19.2   704 – Lincoln Laboratory ETS, New Mexico MPS 67621
2002 12 02.24370 03 03 06.62 +18 56 55.1 19.7   704 – Lincoln Laboratory ETS, New Mexico MPS 67621
2002 12 02.25829 03 03 05.76 +18 56 55.0 19.8   704 – Lincoln Laboratory ETS, New Mexico MPS 67621
2002 12 02.27286 03 03 04.99 +18 56 55.1 20.0   704 – Lincoln Laboratory ETS, New Mexico MPS 67621
2002 12 02.28745 03 03 04.12 +18 56 55.0 19.3   704 – Lincoln Laboratory ETS, New Mexico MPS 67621
2002 12 05.21495 03 00 30.14 +18 56 21.8 19.4   704 – Lincoln Laboratory ETS, New Mexico MPS 67621
2002 12 05.23031 03 00 29.29 +18 56 21.7 19.7   704 – Lincoln Laboratory ETS, New Mexico MPS 67621
2002 12 05.26087 03 00 27.75 +18 56 19.7 19.7   704 – Lincoln Laboratory ETS, New Mexico MPS 67621
2002 12 05.27619 03 00 26.97 +18 56 20.5 19.6   704 – Lincoln Laboratory ETS, New Mexico MPS 67621
2004 05 16.26393 14 48 09.22 -16 05 46.3 20.6 V 691 – Steward Observatory, Kitt Peak-Spacewatch MPS 107278
2004 05 16.29200 14 48 07.46 -16 05 42.9 20.6 V 691 – Steward Observatory, Kitt Peak-Spacewatch MPS 107278
2004 05 16.31963 14 48 05.73 -16 05 39.6 20.8 V 691 – Steward Observatory, Kitt Peak-Spacewatch MPS 107278
2005 08 04.43927 22 52 35.48 -16 48 26.4 20.0   644 – Palomar Mountain/NEAT MPS 138807
2005 08 04.44917 22 52 35.09 -16 48 30.0 20.2   644 – Palomar Mountain/NEAT MPS 138807
2005 08 04.46013 22 52 34.62 -16 48 33.6 20.1   644 – Palomar Mountain/NEAT MPS 138807
2007 01 27.24981 10 25 06.92 +20 55 16.7 19.4 V 703 – Catalina Sky Survey MPS 197969
2007 01 27.25817 10 25 06.49 +20 55 20.6 20.4 V 703 – Catalina Sky Survey MPS 197969
2007 01 27.26657 10 25 06.09 +20 55 24.0 19.6 V 703 – Catalina Sky Survey MPS 197969
2007 01 27.27497 10 25 05.77 +20 55 26.6 19.7 V 703 – Catalina Sky Survey MPS 197969
2007 01 28.41562 10 24 15.96 +21 02 48.8 19.7 V 691 – Steward Observatory, Kitt Peak-Spacewatch MPS 197969
2007 01 28.43382 10 24 15.10 +21 02 55.8 19.7 V 691 – Steward Observatory, Kitt Peak-Spacewatch MPS 197969
2007 01 28.45177 10 24 14.26 +21 03 01.8 19.3 V 691 – Steward Observatory, Kitt Peak-Spacewatch MPS 197969
2007 02 08.41176 10 14 36.45 +22 11 53.2 19.4 V 703 – Catalina Sky Survey MPS 198607
2007 02 08.41818 10 14 36.02 +22 11 56.5 19.4 V 703 – Catalina Sky Survey MPS 198607
2007 02 08.42456 10 14 35.66 +22 11 59.0 20.2 V 703 – Catalina Sky Survey MPS 198607
2007 02 08.43095 10 14 35.55 +22 12 03.9 20.0 V 703 – Catalina Sky Survey MPS 198607
2007 02 17.42051 10 05 15.39 +22 59 20.4 18.6 R 644 – Palomar Mountain/NEAT MPS 200248
2007 02 17.44078 10 05 14.05 +22 59 25.7 18.8 R 644 – Palomar Mountain/NEAT MPS 200248
2007 02 17.46221 10 05 12.61 +22 59 31.3 18.5 R 644 – Palomar Mountain/NEAT MPS 200248
2007 02 18.22536 10 04 24.71 +23 02 53.7 18.7 R 699 – Lowell Observatory-LONEOS MPS 200248
2007 02 18.24820 10 04 23.22 +23 02 59.4   699 – Lowell Observatory-LONEOS MPS 200248
2007 02 18.27106 10 04 21.84 +23 03 05.9   699 – Lowell Observatory-LONEOS MPS 200248
2007 02 18.29391 10 04 20.15 +23 03 12.0   699 – Lowell Observatory-LONEOS MPS 200248
2007 03 06.24739 09 48 54.99 +23 42 41.8 19.5 R 644 – Palomar Mountain/NEAT MPS 202277
2007 03 06.26816 09 48 53.92 +23 42 42.3 19.7 R 644 – Palomar Mountain/NEAT MPS 202277
2007 03 06.28896 09 48 52.84 +23 42 43.1 19.4 R 644 – Palomar Mountain/NEAT MPS 202277
2009 10 14.26639 02 39 25.16 +12 23 11.9 18.5 V 703 – Catalina Sky Survey MPS 299145
2009 10 14.27311 02 39 24.87 +12 23 10.1 19.0 V 703 – Catalina Sky Survey MPS 299145
